Location: Recife
(8.0585°S, 34.8848°W)
Time: 11:41:08
(UTC-03:00)

Vanguard 2 Rocket - Pass Details

Date: 18 April 2026
Orbit: 553 x 3286 km, 32.9° (Epoch: 7 May)

Event Time Altitude Azimuth Distance (km) Brightness Sun altitude
Rises 01:46:45 0° 339° (NNW) 2,717 - -53.5°
Reaches altitude 10° 01:49:31 10° 2° (N) 1,923 - -52.8°
Maximum altitude 01:52:15 16° 43° (NE) 1,711 - -52.1°
Drops below altitude 10° 01:55:30 10° 82° (E) 2,375 - -51.3°
Exits shadow 01:56:53 - 91° (E) 2,818 9.9 -51.0°
Sets 01:59:31 0° 101° (ESE) 3,743 10.6 -50.3°
